Flag for Germany Weather past 2 weeks in Fehmarn (Puttgarden), Schleswig-Holstein, Germany

Now
62 °F

Partly sunny.


Feels Like: 62 °F
Forecast: 61 / 67 °F
Wind: 6 mph from Southeast

Location: Westermarkelsdorf

Current Time: Sep 18, 2014 at 10:05:58 AM

Latest Report: Sep 18, 2014 at 9:00 AM


Visibility: 6 mi

Pressure: 30.01 "Hg

Humidity: 79%

Dew point: 55 °F

Location of Fehmarn (Puttgarden)Location

Historic Weather in Fehmarn (Puttgarden) — Graph

°F

Fehmarn (Puttgarden) temperature yesterday

Maximum temperature yesterday: 67 °F (at 1:00 PM)
Minimum temperature yesterday: 60 °F (at 7:00 AM)
Average temperature yesterday: 63 °F

Past Weeks' High & Low Weather Summary

 TemperatureHumidityPressure
High72 °F (Sep 6, 4:00 PM)98% (Sep 6, 4:00 AM)30.39 "Hg (Sep 6, 4:00 AM)
Low57 °F (Sep 4, 3:00 AM)62% (Sep 6, 4:00 PM)29.87 "Hg (Sep 7, 4:00 AM)
Average62 °F85%30.10 "Hg
* Reported Sep 3 9:00 AM — Sep 18 9:00 AM, Fehmarn (Puttgarden), Weather by CustomWeather, © 2014

Note: Actual official high and low records may vary slightly from our data, if they occured in-between our weather recording intervals... More about our weather records

Advertising

Fehmarn (Puttgarden) weather history for previous 24 hours

 ConditionsComfort  
Time TempWeatherWind HumidityBarometerVisibility
9:00 AM
Sep 18
62 °FPartly sunny.6 mph79%30.01 "Hg6 mi
8:00 AM59 °FPartly sunny.5 mph86%30.01 "Hg6 mi
7:00 AM58 °FPartly sunny.5 mph87%30.01 "Hg6 mi
6:00 AM59 °FPassing clouds.5 mph86%30.01 "Hg7 mi
5:00 AM60 °FOvercast.5 mph89%30.01 "Hg6 mi
4:00 AM59 °FOvercast.5 mph88%30.02 "Hg6 mi
3:00 AM60 °FClear.5 mph91%30.02 "Hg6 mi
2:00 AM62 °FPassing clouds.6 mph88%30.03 "Hg7 mi
1:00 AM62 °FOvercast.6 mph93%30.03 "Hg6 mi
12:00 AM62 °FPassing clouds.6 mph90%30.05 "Hg7 mi
10:00 PM
Sep 17
62 °FPassing clouds.7 mph92%30.06 "Hg6 mi
9:00 PM62 °FPassing clouds.8 mph91%30.06 "Hg7 mi
8:00 PM61 °FOvercast.9 mph90%30.06 "Hg6 mi
7:00 PM62 °FOvercast.10 mph86%30.06 "Hg9 mi
6:00 PM63 °FPartly sunny.10 mph81%30.06 "Hg12 mi
5:00 PM65 °FOvercast.12 mph76%30.07 "Hg12 mi
4:00 PM66 °FOvercast.10 mph72%30.08 "Hg12 mi
3:00 PM67 °FOvercast.9 mph70%30.09 "Hg12 mi
2:00 PM66 °FPartly sunny.8 mph70%30.10 "Hg12 mi
1:00 PM67 °FPartly sunny.8 mph67%30.11 "Hg12 mi
12:00 PM66 °FScattered clouds.8 mph75%30.11 "Hg11 mi
10:00 AM64 °FScattered clouds.7 mph78%30.12 "Hg14 mi
Weather by CustomWeather, © 2014

See weather overviewHow to use our weather pages